Vertical_Velocity
-1 -1 -1 -0 -0 -0 -0 -1 -1 -1 -1 -0 -0 -0 -0 -0 -0 -0 -0 -0 0 0 1 1 1 1 1 1 1 1 1 -0 -0 -0 -0 0 0 0 -0 -0 -0 -0 -0 -0 -0 0 0 1 1 1 1 1 1 0 -0 -0 -0 -0 -0 0 0 0 0 -0 -0 0 -0 -0 -0 -0 -0 -0 -0 -0 0 -0 -0 -0 -1 -1 -1 -1 -1 -1 -1 -1 -1 -1 -1 -1 -0 -1 -1 -1 -1 -1 -1 -1 -0 -0 -0 1 2
-1 -1 -1 -1 -0 -0 -0 -0 -0 -0 -0 -0 -0 -0 -0 0 0 0 0 0 0 0 1 1 1 1 1 1 1 1 1 0 -0 -0 0 0 0 0 -0 -0 -0 -0 -0 -0 -0 -0 -0 0 0 1 1 1 1 1 0 0 0 0 0 0 0 0 -0 -0 -0 -0 -0 -0 -0 -1 -1 -0 -0 -0 0 -0 -0 -0 -1 -1 -1 -2 -1 -1 -1 -1 -1 -1 -1 -1 -0 -1 -1 -1 -1 -1 -1 -1 -1 -1 0 1 2
-1 -1 -1 -1 -1 -0 -0 -0 -0 -0 -0 -0 -0 -0 -0 -0 0 0 0 0 0 0 1 1 1 1 1 1 1 1 0 0 0 0 0 0 0 0 -0 -0 -0 -0 -0 -0 -0 -0 -0 -0 0 0 0 1 1 1 1 1 0 0 0 0 0 0 -0 -0 -0 -0 -0 -0 -1 -1 -1 -1 -1 -1 -0 -0 -0 -0 -0 -1 -1 -2 -2 -1 -1 -1 -1 -1 -1 -1 -0 -1 -1 -1 -1 -1 -0 -0 -1 -1 -0 1 1
-1 -1 -1 -1 -1 -1 -1 -1 -0 -0 -0 -0 -0 -0 -0 -0 -0 -0 -0 0 0 0 0 1 1 1 1 1 1 1 0 0 0 0 0 0 -0 -0 -0 -0 -0 -0 -0 -0 -0 -0 -0 -0 0 0 0 0 0 1 1 1 0 0 0 -0 -0 -0 -0 -0 -0 -0 -0 -1 -1 -1 -1 -1 -1 -1 -1 -1 -1 -1 -1 -1 -1 -2 -2 -1 -1 -1 -1 -1 -1 -1 -1 -1 -2 -2 -2 -1 -1 -1 -1 -1 -0 0 0
-2 -1 -1 -1 -1 -1 -1 -1 -1 -1 -1 -1 -1 -1 -1 -0 -0 -0 -0 0 0 0 0 0 1 1 1 1 1 1 1 0 0 0 -0 -0 -0 -0 -0 -0 -0 -0 -0 -0 -0 -0 -0 -0 -0 0 -0 -0 -0 -0 0 0 0 0 -0 -0 -0 -0 -0 -0 -0 -1 -1 -1 -1 -1 -1 -1 -1 -2 -1 -1 -1 -1 -1 -1 -1 -1 -3 -2 -1 -1 -1 -1 -0 0 -0 -1 -1 -2 -3 -2 -1 -1 -1 -1 -0 0 0
-2 -2 -2 -2 -2 -2 -2 -1 -1 -1 -1 -1 -1 -1 -1 -1 -0 -0 -0 -0 0 0 0 0 1 1 1 1 1 1 1 1 0 0 0 -0 -0 -0 -0 -0 -0 -0 -0 -0 -0 -0 -0 -0 -0 -0 -0 -0 -0 -0 -0 -0 -0 -0 -0 -0 -0 -0 -0 -0 -0 -1 -1 -1 -1 -0 -0 -0 -1 -1 -2 -1 -1 -1 -2 -2 -1 -0 -3 -2 -1 -1 -2 -1 -0 0 0 -0 -1 -1 -1 -2 -2 -1 -1 -1 -1 0 1
-2 -2 -2 -2 -2 -2 -2 -2 -2 -1 -1 -1 -1 -1 -1 -1 -1 -0 -0 -0 -0 0 0 0 1 1 1 1 1 1 1 1 1 0 0 0 0 -0 -0 -0 -0 -0 -0 -0 -0 -0 -0 -0 -0 -0 -0 -0 -0 -0 -0 -0 -0 -0 -0 -0 -0 -0 -0 -0 -1 -1 -1 -1 -1 -0 -0 -0 -0 -1 -1 -1 -1 -1 -1 -3 -2 -0 -1 -1 -1 -1 -1 -1 -1 0 1 0 -0 -1 -1 -1 -2 -1 -1 -1 -1 0 1
-1 -1 -1 -1 -1 -1 -1 -1 -1 -1 -1 -1 -1 -1 -1 -1 -1 -1 -0 -0 0 0 0 0 0 0 1 1 1 1 1 1 1 1 1 0 0 0 0 -0 -0 -0 -0 -0 -0 -0 -0 -0 0 0 -0 -0 -0 -0 -0 -0 -0 -0 -0 -0 -0 -0 -0 -0 -1 -1 -1 -1 -1 -0 -0 -0 0 -0 -0 -1 -1 -1 -1 -2 -2 -2 -1 -1 -1 -1 -1 -1 -1 -1 -0 0 0 -0 -0 -0 -1 -1 -1 -0 -0 -0 1
-1 -1 -1 -1 -1 -1 -1 -1 -1 -1 -1 -1 -1 -1 -1 -1 -0 -0 -0 0 0 0 0 0 0 0 0 1 1 1 1 1 1 1 0 0 0 0 0 0 0 0 0 0 0 0 0 0 0 0 0 0 0 0 0 0 -0 -0 -0 -0 -0 -0 -0 -0 -1 -1 -1 -1 -1 -1 -0 -0 0 0 1 0 -0 -1 -1 -1 -2 -2 -2 -2 -1 -1 -1 -0 -1 -1 -1 -1 -0 0 1 -0 -1 -1 -2 -1 -1 -0 0
-1 -1 -1 -1 -1 -1 -1 -1 -1 -1 -1 -1 -1 -1 -1 -1 -1 -0 -0 0 0 0 0 0 0 0 0 0 1 1 1 1 0 0 0 0 0 0 -0 -0 -0 -0 0 0 0 0 0 1 1 0 0 1 0 0 0 0 0 0 0 0 0 0 -0 -0 -1 -1 -1 -1 -1 -1 -1 -0 0 1 1 1 1 -0 -1 -1 -1 -2 -3 -2 -2 -1 -1 -0 -0 -1 -1 -1 -1 0 1 0 -0 -1 -1 -1 -1 -1 -0
-1 -1 -1 -1 -1 -1 -1 -1 -1 -1 -1 -1 -1 -1 -1 -1 -1 -1 -1 -0 -0 0 0 0 0 0 0 0 1 1 1 1 1 0 0 -0 -0 -0 -0 -0 -0 -0 -0 -0 -0 -0 0 0 1 0 0 1 1 1 1 0 0 0 0 -0 -0 -0 -0 -0 -0 -1 -1 -1 -1 -1 -1 -1 -0 -0 1 1 1 1 -0 -0 -1 -1 -2 -3 -2 -2 -1 -1 -0 -1 -1 -1 -0 -0 1 1 0 -0 -1 -1 -1 -0 0
-1 -1 -1 -1 -1 -1 -1 -1 -1 -1 -1 -1 -1 -1 -1 -1 -1 -1 -1 -1 -1 -0 -0 0 0 0 0 0 0 0 1 1 1 1 0 0 -0 -0 -0 -0 -1 -1 -1 -1 -0 -0 -0 0 0 0 0 0 0 0 0 0 0 -0 -0 -0 -0 -0 -0 -0 -0 -1 -1 -1 -1 -1 -1 -1 -1 -1 -0 1 1 1 1 1 0 -1 -2 -2 -2 -2 -1 -1 -1 -1 -1 -1 -1 -0 0 1 0 -0 -0 -0 -0 0 0
-1 -1 -1 -1 -1 -1 -1 -2 -2 -2 -2 -2 -2 -2 -2 -2 -2 -2 -2 -1 -1 -1 -1 -0 -0 -0 -0 -0 -0 0 0 1 1 1 1 0 0 -0 -0 -0 -0 -1 -1 -1 -1 -1 -0 -0 -0 -0 -0 -0 -0 -0 -0 -0 -0 -0 -0 -0 -0 -0 -0 -0 -0 -0 -0 -0 -1 -1 -1 -1 -1 -1 -1 -0 0 1 1 1 1 0 -2 -2 -2 -1 -0 -0 -1 -1 -1 -1 -1 -1 -0 0 0 0 0 0 0 1 1
-1 -1 -1 -1 -1 -1 -1 -1 -1 -1 -2 -2 -2 -2 -2 -2 -2 -2 -2 -2 -1 -1 -1 -1 -0 -0 -0 -0 -0 -0 -0 0 0 0 0 0 0 0 -0 -0 -0 -1 -1 -1 -1 -0 -0 -0 -0 -0 -0 -0 -0 -0 -0 -0 -1 -1 -1 -0 -0 -0 -0 -0 -0 -0 -0 -0 -1 -1 -1 -1 -1 -1 -2 -1 -0 -0 -0 1 2 1 -2 -2 -2 -0 0 -0 -0 -1 -1 -1 -1 -1 -1 -0 0 0 0 0 1 1 1
-1 -1 -1 -1 -1 -1 -1 -1 -1 -1 -1 -1 -1 -1 -2 -2 -2 -2 -2 -1 -1 -1 -1 -1 -1 -1 -1 -1 -1 -1 -0 -0 -0 -0 -0 -0 -0 -0 -0 -0 -0 -0 -1 -1 -1 -0 -0 -0 -0 -0 -0 -0 -0 -0 -0 -1 -1 -1 -1 -0 -0 -0 0 0 -0 -0 -0 -0 -0 -0 -0 -0 -1 -1 -2 -1 -1 -1 -1 0 2 2 -1 -3 -2 -0 1 1 0 -0 -0 -0 -1 -1 -1 -0 -0 0 0 0 1 1 1
-1 -1 -1 -1 -1 -1 -1 -1 -1 -1 -1 -1 -1 -1 -1 -2 -2 -2 -2 -1 -1 -1 -1 -1 -1 -1 -1 -1 -1 -1 -1 -1 -1 -0 -0 -0 -0 -0 -0 -0 -0 -0 -1 -1 -1 -0 -0 -0 -0 -0 -0 -0 -0 -0 -0 -0 -1 -1 -0 -0 0 0 0 0 0 -0 -0 -0 -0 -0 -0 0 -0 -1 -1 -1 -1 -1 -2 -1 1 2 -0 -2 -3 -2 0 1 1 0 0 -0 -0 -0 -0 -0 -0 -0 0 0 0 1 1
-1 -1 -1 -1 -1 -1 -1 -1 -1 -1 -1 -1 -1 -1 -1 -1 -1 -2 -1 -1 -1 -1 -1 -1 -1 -1 -1 -1 -1 -1 -1 -1 -1 -1 -1 -1 -1 -1 -1 -1 -1 -1 -1 -1 -0 -0 -0 -0 -0 -0 -0 -0 -0 -0 -0 -0 -0 -0 -0 0 0 1 1 0 0 -0 -0 -0 -0 -0 0 0 -0 -1 -1 -0 -0 -1 -1 -2 -0 1 1 -1 -2 -2 -1 -0 0 1 0 0 -0 -0 -0 -0 -0 -0 0 0 0 0 1
-1 -1 -1 -1 -1 -1 -1 -1 -1 -1 -1 -1 -1 -1 -1 -1 -1 -1 -1 -1 -1 -1 -1 -1 -1 -1 -1 -1 -1 -1 -1 -1 -1 -1 -1 -1 -1 -1 -1 -1 -1 -1 -1 -1 -1 -0 -0 -0 -0 -0 -0 -0 -0 -0 -0 -0 -0 -0 -0 0 1 1 1 1 0 -0 -0 -0 -0 -0 -0 0 -0 -0 -1 -0 -0 -1 -1 -2 -1 0 1 -0 -1 -2 -2 -1 -0 0 0 0 -0 -0 0 -0 -0 0 0 0 0 0 0
-1 -1 -1 -1 -1 -1 -1 -1 -1 -1 -1 -1 -1 -1 -1 -1 -1 -1 -1 -1 -1 -1 -1 -1 -1 -1 -1 -1 -1 -1 -1 -1 -1 -1 -1 -1 -1 -1 -1 -1 -1 -1 -1 -1 -1 -0 -0 -0 -0 0 -0 -0 -0 -0 -0 -0 -0 -0 -0 0 1 1 1 0 0 -0 -1 -1 -1 -0 -0 -0 -0 -0 -0 -0 -0 -0 -1 -2 -2 -1 -0 -0 -1 -1 -2 -1 -1 -0 0 0 0 -0 -0 -0 0 0 0 0 0 0 0
-1 -1 -1 -1 -1 -1 -1 -1 -2 -2 -2 -2 -1 -1 -1 -1 -1 -1 -1 -1 -1 -1 -1 -1 -1 -1 -1 -0 -1 -1 -1 -0 -0 -0 -1 -1 -1 -1 -1 -1 -1 -1 -1 -1 -1 -1 -0 -0 -0 -0 -0 -0 -0 -0 -0 -1 -1 -0 -0 -0 0 0 0 0 -0 -0 -1 -1 -1 -1 -1 -0 -0 -0 -0 -0 -0 -0 -0 -1 -2 -2 -2 -1 -1 -1 -2 -2 -1 -0 0 0 0 -0 -0 -0 0 0 0 0 0 0 0
-1 -1 -1 -1 -1 -1 -1 -1 -1 -2 -2 -2 -2 -1 -1 -1 -1 -1 -1 -1 -1 -1 -1 -1 -1 -1 -0 -0 -0 -0 -0 -0 -0 -0 -0 -0 -0 -1 -1 -1 -1 -1 -1 -1 -1 -1 -1 -0 -0 -0 -0 -0 -0 -1 -1 -1 -1 -1 -0 -0 -0 -0 0 0 0 -0 -1 -1 -1 -1 -1 -1 -0 -0 -0 -0 -0 -0 -0 -0 -1 -1 -2 -1 -1 -1 -2 -2 -2 -1 -0 0 0 -0 -0 -0 0 0 0 1 1 1 1
-1 -1 -1 -1 -1 -1 -1 -1 -1 -2 -2 -2 -2 -1 -1 -1 -1 -1 -1 -1 -1 -1 -1 -1 -1 -1 -0 -0 0 0 -0 -0 -0 -0 -0 -0 -0 -0 -1 -1 -1 -1 -1 -1 -1 -1 -1 -1 -0 -0 -0 -0 -1 -1 -1 -1 -1 -1 -1 -1 -0 -0 -0 -0 0 0 -0 -1 -1 -2 -2 -1 -1 -1 -0 -0 -1 -1 -0 -0 -1 -1 -1 -1 -1 -1 -2 -2 -2 -2 -1 -0 -0 -0 -0 -0 -0 0 0 0 1 1 1
-1 -1 -1 -1 -1 -1 -1 -1 -1 -1 -2 -2 -2 -2 -1 -1 -1 -1 -1 -1 -1 -1 -1 -1 -1 -1 -1 -0 -0 -0 -0 -0 -0 -0 -0 -0 -0 -0 -0 -0 -0 -1 -1 -1 -1 -1 -1 -1 -0 -0 -0 -0 -0 -1 -1 -1 -1 -1 -1 -1 -1 -0 -0 -0 0 0 -0 -1 -1 -2 -2 -2 -1 -1 -1 -0 -1 -1 -1 -1 -1 -1 -1 -1 -1 -1 -1 -2 -2 -2 -1 -1 -0 -0 -0 -0 -0 -0 -0 0 0 1 1
-1 -1 -1 -1 -1 -1 -1 -1 -1 -1 -1 -2 -2 -2 -2 -1 -1 -1 -1 -1 -1 -1 -1 -2 -2 -1 -1 -0 -0 -0 -0 0 0 -0 -0 -0 -0 -0 -0 -0 -0 -0 -1 -1 -1 -1 -1 -1 -0 -0 -0 -0 -0 -0 -0 -0 -0 -0 -1 -1 -0 -0 -0 -0 -0 -0 -0 -0 -1 -1 -2 -2 -1 -1 -1 -1 -1 -1 -1 -1 -1 -1 -1 -1 -1 -1 -1 -1 -2 -2 -2 -1 -0 0 0 0 -0 -0 -0 -0 0 0 1
-1 -1 -1 -1 -1 -1 -1 -1 -1 -1 -1 -1 -1 -2 -2 -2 -2 -1 -1 -1 -1 -1 -1 -2 -2 -1 -1 -1 -0 -0 -0 -0 -0 -0 -0 -0 -0 -0 -0 -0 -0 -0 -0 -0 -0 -0 -0 -0 -0 -0 -0 -0 -0 0 0 -0 -0 -0 -0 -0 -0 -0 -0 -0 -0 -0 -1 -1 -1 -1 -1 -1 -1 -1 -1 -1 -1 -1 -1 -1 -1 -1 -1 -1 -1 -1 -0 -1 -1 -2 -2 -2 -1 -0 0 0 0 0 -0 -0 -0 0 1
-1 -1 -1 -1 -1 -1 -1 -1 -1 -1 -1 -1 -1 -1 -2 -2 -2 -2 -1 -1 -1 -1 -1 -2 -2 -2 -1 -1 -1 -0 -0 -0 -0 -0 -0 -0 -1 -1 -1 -1 -0 -0 -0 -0 -0 -0 -0 -0 -0 -0 -0 -0 -0 -0 -0 -0 -0 -0 -0 -0 -0 -0 -0 -0 -0 -0 -1 -1 -1 -1 -1 -1 -1 -1 -1 -1 -1 -1 -1 -1 -1 -1 -1 -1 -1 -1 -1 -0 -1 -1 -1 -2 -1 -1 -0 -0 0 0 0 -0 -0 0 0
-0 -1 -1 -0 -0 -1 -1 -1 -1 -1 -1 -1 -1 -1 -1 -2 -2 -2 -2 -2 -1 -1 -1 -2 -2 -2 -2 -1 -1 -1 -0 -0 -0 -0 -1 -1 -1 -1 -1 -1 -1 -1 -1 -1 -1 -1 -0 -0 -0 -0 -0 -0 -0 -0 -0 -0 -0 -0 -1 -1 -0 -0 -0 -0 -0 -0 -1 -1 -1 -1 -1 -1 -1 -1 -1 -1 -1 -1 -1 -1 -1 -0 -1 -1 -1 -1 -1 -0 -0 -1 -1 -1 -1 -1 -1 -1 -0 -0 -0 -0 -0 -0 0
-0 -1 -0 -0 -0 -1 -1 -1 -1 -1 -1 -1 -1 -1 -1 -1 -2 -2 -2 -2 -2 -2 -2 -2 -2 -2 -2 -1 -1 -1 -0 -0 -0 -0 -1 -1 -1 -1 -1 -2 -2 -2 -1 -1 -1 -1 -1 -1 -1 -0 -0 -0 -0 -0 -0 -0 -0 -1 -1 -1 -0 -0 -0 -0 -0 -0 -1 -1 -1 -1 -1 -1 -2 -2 -2 -1 -1 -1 -1 -1 -0 -0 -0 -0 -1 -1 -1 -0 -0 -1 -1 -1 -1 -1 -1 -1 -1 -1 -0 -0 -0 -0 -0
-0 -0 -0 -0 -0 -0 -0 -1 -1 -1 -1 -1 -1 -1 -1 -1 -1 -2 -2 -2 -2 -2 -2 -2 -2 -2 -2 -2 -1 -1 -0 0 0 0 -0 -1 -1 -1 -1 -1 -2 -2 -1 -1 -1 -1 -1 -1 -1 -0 -0 -0 -0 0 0 -0 -0 -1 -1 -1 -1 -1 -1 -1 -1 -1 -1 -1 -1 -1 -1 -1 -2 -2 -2 -2 -2 -1 -1 -1 -0 -0 -0 -0 -0 -1 -1 -1 -1 -1 -1 -1 -1 -1 -1 -1 -1 -1 -1 -1 -1 -1 -1
-0 -0 -0 -0 -0 -0 -0 -1 -1 -1 -1 -1 -1 -1 -1 -1 -1 -1 -2 -2 -1 -1 -2 -2 -2 -2 -2 -2 -1 -1 -0 0 0 0 0 -0 -1 -1 -1 -1 -1 -1 -1 -1 -1 -1 -1 -1 -1 -1 -0 -0 -0 -0 -0 -0 -0 -1 -1 -1 -1 -1 -1 -1 -1 -1 -1 -1 -1 -1 -1 -1 -1 -1 -2 -2 -2 -1 -1 -1 -1 -0 -0 -0 -0 -1 -1 -1 -1 -1 -1 -1 -0 -1 -1 -1 -1 -1 -1 -1 -1 -1 -1
-0 -0 -0 -0 -0 -0 -0 -0 -1 -1 -1 -1 -1 -1 -1 -1 -1 -1 -1 -1 -1 -2 -2 -2 -2 -2 -2 -1 -1 -1 -0 0 1 1 1 0 -0 -1 -1 -1 -1 -1 -1 -1 -1 -1 -1 -1 -1 -1 -1 -1 -0 -0 -0 -0 -0 -1 -1 -1 -1 -1 -1 -1 -1 -1 -1 -1 -1 -1 -1 -1 -1 -1 -1 -1 -1 -1 -1 -1 -1 -1 -0 -0 -0 -1 -1 -1 -1 -1 -1 -0 -0 -0 -0 -1 -1 -1 -1 -1 -1 -1 -1
0 -0 -0 -0 -0 -1 -1 -0 -0 -1 -1 -1 -1 -1 -1 -1 -1 -1 -1 -1 -1 -1 -2 -2 -2 -2 -2 -1 -1 -1 -0 0 1 1 1 1 0 -0 -1 -1 -2 -2 -1 -1 -1 -1 -1 -1 -1 -1 -1 -1 -1 -1 -0 -1 -1 -1 -1 -1 -1 -1 -1 -1 -1 -1 -1 -1 -1 -1 -1 -1 -1 -1 -1 -1 -1 -1 -1 -1 -1 -1 -0 -0 -0 -1 -1 -1 -1 -2 -1 -0 0 1 0 -0 -0 -1 -1 -1 -1 -1 -1
0 0 -0 -0 -0 -1 -0 -0 -1 -1 -1 -0 -1 -1 -1 -1 -1 -1 -1 -1 -1 -1 -1 -1 -1 -1 -1 -2 -2 -1 -0 -0 0 1 1 1 0 -0 -1 -1 -2 -2 -1 -1 -1 -1 -1 -1 -1 -1 -1 -1 -1 -1 -1 -1 -1 -1 -1 -1 -1 -1 -1 -1 -1 -1 -1 -1 -1 -1 -1 -1 -1 -1 -1 -1 -1 -1 -1 -1 -1 -1 -1 -0 -0 -1 -1 -1 -2 -2 -2 -1 -0 -0 0 -0 -0 -0 -1 -1 -1 -1 -1
1 0 0 -0 -0 -0 -0 -1 -1 -1 -0 -0 -0 -1 -1 -1 -1 -1 -1 -1 -1 -0 -1 -1 -1 -1 -1 -2 -2 -1 -1 -0 -0 -0 -0 -0 -0 -0 -0 -1 -2 -2 -1 -1 -1 -1 -1 -1 -1 -1 -1 -1 -1 -1 -1 -1 -1 -1 -1 -1 -1 -1 -1 -1 -1 -1 -1 -1 -1 -1 -1 -1 -1 -1 -1 -1 -1 -1 -1 -1 -1 -1 -1 -1 -1 -1 -1 -1 -1 -1 -1 -1 -1 -1 -0 -1 -1 -1 -1 -1 -1 -1 -1
1 1 0 0 -0 -0 -1 -1 -1 -1 -0 -0 -0 -0 -1 -1 -1 -1 -0 -0 -0 -1 -1 -1 -1 -1 -2 -1 -1 -1 -1 -1 -1 -1 -1 -1 -1 -1 -1 -1 -2 -2 -1 -1 -1 -1 -1 -1 -1 -1 -1 -1 -1 -0 -0 -0 -1 -1 -1 -1 -1 -1 -1 -1 -1 -1 -1 -1 -1 -1 -1 -1 -1 -1 -1 -1 -1 -1 -1 -1 -1 -1 -1 -1 -1 -1 -1 -1 -1 -1 -1 -1 -1 -1 -0 -1 -1 -1 -1 -2 -2 -2 -2
1 1 1 0 -0 -0 -1 -1 -1 -1 -0 0 0 -0 -0 -1 -1 -1 -0 -0 -0 -1 -1 -1 -1 -1 -2 -1 -1 -1 -2 -1 -1 -1 -1 -1 -2 -1 -1 -1 -2 -2 -1 -1 -1 -1 -1 -1 -1 -1 -1 -1 -0 -0 -0 -0 -0 -0 -1 -1 -1 -1 -1 -1 -1 -1 -1 -1 -1 -1 -1 -1 -1 -1 -1 -1 -1 -1 -1 -1 -1 -1 -1 -1 -1 -1 -1 -1 -1 -1 -1 -1 -1 -1 -0 -0 -0 -1 -1 -2 -2 -2 -2
1 1 1 0 0 -0 -1 -2 -2 -1 -0 0 1 0 -0 -1 -1 -1 -0 -0 -0 -1 -1 -1 -1 -1 -1 -1 -1 -1 -2 -1 -2 -2 -2 -2 -1 -1 -1 -1 -1 -1 -1 -1 -1 -0 -0 -1 -1 -1 -1 -1 -0 -0 -0 -0 -0 -0 -0 -0 -1 -1 -1 -1 -1 -1 -1 -1 -1 -1 -1 -0 -0 -0 -0 -0 -0 -0 -0 -0 -0 -0 -0 -0 -1 -1 -1 -1 -1 -1 -1 -1 -1 -1 -0 -0 -0 -0 -1 -1 -2 -2 -2
1 1 1 0 0 -0 -1 -2 -2 -2 -0 0 1 0 -0 -1 -1 -1 -0 -0 -1 -1 -1 -1 -1 -1 -1 -1 -1 -1 -1 -1 -2 -2 -2 -2 -1 -1 -1 -1 -1 -1 -1 -1 -1 -0 -0 -1 -1 -1 -1 -1 -1 -1 -1 -0 -0 -0 -0 -0 -0 -1 -1 -1 -1 -1 -1 -1 -1 -0 -0 -0 -0 -0 -0 -0 -0 -0 -0 -0 -0 -0 -0 -0 -0 -1 -1 -1 -1 -1 -2 -2 -1 -1 -1 -0 -0 0 -0 -1 -1 -2 -2
1 1 1 0 0 -0 -1 -2 -3 -2 -1 0 1 1 -0 -1 -1 -1 -0 -0 -1 -1 -0 -1 -1 -1 -1 -1 -1 -1 -1 -1 -1 -2 -2 -1 -1 -1 -1 -1 -1 -1 -1 -1 -1 -1 -1 -1 -1 -1 -1 -1 -1 -1 -1 -1 -1 -1 -0 -0 -0 -0 -0 -0 -0 -0 -0 -0 -0 -0 -0 -0 -0 -0 -0 -0 -0 -0 0 0 0 0 0 -0 -0 -0 -1 -1 -1 -1 -1 -1 -1 -1 -1 -0 0 0 0 -0 -1 -1 -2
0 0 0 0 -0 -0 -1 -2 -3 -3 -1 -0 0 1 -0 -1 -1 -1 -1 -1 -1 -1 -0 -1 -1 -1 -2 -1 -1 -1 -1 -1 -1 -1 -2 -1 -1 -1 -1 -1 -1 -1 -1 -1 -1 -1 -1 -1 -1 -2 -1 -1 -1 -1 -1 -1 -1 -1 -0 -0 -0 -0 -0 -0 -0 -0 -0 -0 -0 -0 -0 -0 -0 -0 -0 0 0 0 0 0 0 0 0 -0 -0 -0 -0 -1 -1 -1 -1 -1 -1 -1 -0 0 0 1 1 0 -0 -1 -1
-0 0 0 -0 -0 -1 -1 -2 -2 -3 -2 -1 -0 0 -0 -1 -1 -1 -1 -1 -1 -1 -1 -0 -0 -1 -2 -1 -1 -0 -1 -1 -0 -1 -1 -1 -0 -0 -0 -0 -0 -1 -1 -1 -1 -1 -1 -1 -1 -1 -1 -1 -1 -1 -1 -1 -1 -1 -1 -0 -0 -0 -0 -0 -0 -0 -0 0 0 0 0 0 0 0 0 0 0 0 0 0 0 0 -0 -0 -0 -1 -1 -1 -1 -1 -1 -1 -1 -1 -0 0 1 1 1 1 1 0 -0
-0 -0 -0 -0 -0 -1 -1 -2 -2 -2 -2 -1 -0 -0 -0 -1 -1 -1 -1 -1 -1 -1 -1 -0 -0 -1 -2 -2 -1 -0 -1 -1 -0 -0 -0 -1 -0 -0 0 -0 -0 -1 -1 -1 -1 -1 -1 -1 -1 -1 -1 -1 -1 -1 -1 -1 -1 -1 -1 -1 -1 -1 -0 -0 -0 -0 -0 -0 -0 0 0 0 0 0 0 0 0 1 0 0 0 -0 -0 -1 -1 -1 -1 -1 -1 -1 -1 -1 -1 -1 -1 -0 0 0 1 1 1 1 1
-0 -0 -0 -0 -1 -1 -1 -1 -2 -2 -1 -1 -1 -0 -0 -1 -1 -1 -1 -1 -1 -1 -1 -0 -0 -0 -1 -2 -1 -1 -0 -1 -1 -0 0 -0 -0 -0 0 0 -0 -1 -1 -1 -1 -1 -1 -1 -1 -1 -1 -1 -1 -2 -2 -2 -2 -2 -2 -2 -2 -1 -1 -1 -1 -1 -1 -1 -0 -0 -0 -0 0 0 0 0 0 0 0 0 0 -0 -0 -1 -1 -1 -1 -2 -1 -1 -1 -1 -1 -2 -2 -1 -1 -1 -0 -0 0 1 1
-0 -0 -0 -0 -1 -1 -1 -1 -1 -1 -1 -1 -1 -0 -0 -1 -1 -1 -1 -1 -1 -1 -2 -1 -0 -0 -1 -2 -1 -1 -0 -0 -1 -0 -0 -0 -0 -0 -0 -0 -0 -1 -1 -1 -1 -1 -1 -1 -1 -1 -1 -1 -1 -2 -2 -2 -2 -2 -2 -2 -2 -2 -2 -2 -2 -2 -1 -1 -1 -1 -1 -1 -0 -0 0 0 0 0 0 0 0 -0 -0 -1 -1 -1 -1 -1 -1 -1 -1 -1 -1 -1 -2 -2 -2 -1 -1 -1 -1 -0 0
-1 -0 -0 -0 -1 -1 -1 -1 -1 -0 -0 -0 -0 -0 -1 -1 -1 -1 -1 -1 -1 -1 -1 -1 -1 -0 -1 -1 -1 -1 -1 -1 -0 -0 -0 -0 -0 -0 0 -0 -0 -0 -0 -1 -1 -1 -1 -1 -1 -1 -1 -1 -1 -2 -2 -2 -2 -2 -2 -2 -2 -2 -2 -3 -3 -2 -2 -2 -2 -2 -1 -1 -1 -1 -0 0 0 0 0 0 0 -0 -0 -0 -0 -0 -0 -0 -0 -0 -0 -0 -0 -1 -1 -1 -1 -1 -1 -1 -1 -0 0
-1 -1 -0 -0 -1 -1 -1 -1 -0 -0 -0 -0 -0 -0 -1 -1 -1 -1 -1 -1 -1 -0 -1 -1 -2 -1 -1 -1 -1 -1 -1 -1 -1 -0 -0 -0 -0 -0 0 -0 0 0 0 -1 -1 -1 -1 -1 -1 -1 -1 -1 -1 -2 -2 -2 -2 -2 -2 -2 -2 -2 -2 -3 -3 -3 -3 -3 -2 -2 -2 -2 -2 -1 -1 -0 -0 -0 -0 -0 -0 -0 -0 -0 -0 -0 -0 -0 -0 -0 -0 -0 -0 -0 -0 -1 -1 -1 -1 -1 -1 -1 -0
-1 -1 -1 -1 -1 -1 -1 -1 -0 -0 -0 -0 -0 -1 -1 -1 -1 -1 -1 -1 -1 -0 -0 -1 -1 -2 -1 -1 -0 -0 -1 -1 -1 -1 -1 -0 -0 0 0 -0 -0 0 1 -0 -1 -1 -1 -1 -1 -1 -1 -1 -1 -1 -1 -2 -2 -2 -2 -2 -2 -2 -2 -3 -3 -3 -3 -3 -3 -3 -2 -2 -2 -1 -1 -1 -0 -1 -1 -1 -1 -1 -1 -1 -1 -0 -0 -0 -1 -1 -1 -1 -0 0 0 -0 -1 -1 -1 -1 -1 -1 -0
-1 -1 -1 -1 -1 -1 -1 -1 -1 -0 -0 -0 -0 -1 -1 -1 -1 -1 -1 -1 -1 -1 -1 -0 -1 -1 -2 -1 -1 -0 -0 -1 -1 -0 -0 -1 -1 -0 1 1 0 -0 0 0 -0 -1 -1 -1 -1 -1 -1 -1 -1 -1 -1 -1 -2 -2 -2 -2 -2 -2 -2 -2 -2 -3 -2 -2 -3 -3 -2 -2 -2 -1 -1 -1 -1 -1 -1 -1 -2 -2 -1 -1 -1 -1 -1 -1 -1 -1 -2 -1 -1 -0 0 0 -0 -0 -1 -1 -1 -1 -0
-1 -1 -1 -1 -1 -1 -1 -1 -1 -0 -0 -0 -1 -1 -2 -1 -1 -1 -1 -0 -0 -1 -1 -0 -0 -1 -1 -2 -1 -1 -0 -1 -1 -0 1 -0 -1 -1 -0 1 1 1 -0 0 0 -0 -1 -1 -1 -1 -1 -1 -1 -1 -1 -1 -1 -1 -2 -1 -1 -2 -2 -1 -2 -2 -2 -2 -2 -2 -2 -2 -1 -1 -1 -1 -1 -1 -2 -2 -2 -2 -2 -2 -1 -1 -1 -1 -1 -2 -2 -2 -1 -1 -0 -0 -0 -0 -0 -1 -1 -0 -0
-0 -1 -1 -1 -1 -1 -1 -1 -1 -0 -0 -0 -1 -1 -1 -1 -1 -1 -1 -0 -0 -0 -0 -1 -1 -0 0 -1 -2 -2 -0 -1 -1 -0 0 -0 -0 -0 -1 -0 1 1 1 0 0 1 -0 -1 -1 -1 -1 -0 -1 -1 -1 -1 -1 -1 -2 -1 -1 -2 -2 -1 -1 -1 -1 -1 -2 -2 -1 -1 -1 -0 -0 -0 -1 -1 -2 -2 -2 -3 -3 -2 -2 -2 -2 -2 -2 -2 -2 -2 -2 -2 -1 -1 -1 -1 -1 -1 -1 -1 -0
0 -0 -1 -1 -1 -1 -2 -1 -1 -0 -1 -1 -1 -1 -1 -1 -1 -1 -1 -1 -1 -0 0 -1 -1 -1 1 0 -1 -2 -0 -1 -0 1 0 -2 -1 1 1 -0 -0 -0 -0 -0 0 1 1 -0 -1 -1 -0 -0 -0 -0 -1 -1 -1 -1 -2 -1 -1 -2 -2 -1 -1 -1 -1 -1 -1 -1 -1 -1 -0 -0 0 -0 -1 -1 -2 -2 -2 -2 -2 -2 -2 -2 -2 -2 -2 -2 -2 -2 -2 -2 -2 -2 -2 -1 -1 -1 -1 -1 -1
1 0 -0 -1 -1 -2 -2 -1 -1 -1 -0 -0 -1 -1 -1 -1 -1 -2 -1 -0 -0 -0 0 -0 -1 -2 -0 1 -0 -1 -1 -1 -1 -0 1 -2 -2 -1 1 1 0 -1 -2 -1 -1 -1 0 -1 -1 -1 1 0 -0 -0 -1 -1 -1 -1 -1 -1 -1 -1 -1 -1 -1 -1 -1 -1 -1 -1 -0 -0 0 1 1 0 -1 -1 -1 -2 -2 -2 -2 -2 -2 -2 -3 -3 -3 -3 -2 -3 -3 -3 -3 -3 -3 -2 -2 -2 -1 -1 -1
1 1 -0 -1 -1 -2 -2 -1 -1 -1 -0 -0 -1 -1 -2 -1 -1 -1 -1 -1 -0 -0 -0 0 0 -0 -2 -1 -0 -0 -2 -1 -1 -1 -1 -1 -2 -3 -2 1 1 -1 -1 1 -1 -3 -2 -2 -2 -2 0 1 0 -0 -0 0 -0 -1 -1 -1 -1 -1 -1 -1 -1 -1 -1 -1 -1 -1 -0 -0 0 1 1 0 -0 -1 -1 -1 -1 -1 -1 -2 -2 -2 -2 -2 -2 -3 -3 -3 -3 -3 -3 -4 -4 -4 -3 -2 -2 -1 -1
1 1 0 -1 -1 -1 -1 -1 -1 -1 -0 0 -0 -1 -2 -1 -1 -1 -1 -1 -1 -1 -0 -0 1 1 -1 -2 -1 -1 -2 -1 -1 -1 -2 -1 -0 -1 -4 -3 -1 -0 0 3 2 -1 -5 -3 -2 -2 -4 -0 0 -0 -0 1 0 -0 -0 -1 -1 -1 -1 -1 -1 -1 -1 -1 -1 -1 -0 -0 1 1 2 1 0 -0 -1 -1 -1 -1 -1 -1 -1 -2 -2 -2 -2 -2 -2 -2 -2 -3 -3 -4 -4 -4 -4 -4 -3 -2 -2
1 0 0 -0 -1 -1 -2 -2 -1 -1 -0 0 0 -0 -1 -1 -1 -1 -1 -1 -1 -1 0 -0 0 1 1 -1 -1 -1 -1 -2 -1 -1 -1 -2 -0 1 -0 -3 -4 -3 -2 1 2 2 -2 -2 -2 -2 -4 -2 -0 -0 -1 -0 -0 -0 -1 -1 -1 -1 -1 -2 -2 -2 -2 -2 -1 -1 -0 -0 1 1 2 1 0 -0 -0 -0 -0 -0 -0 -0 -1 -1 -1 -1 -1 -2 -2 -2 -2 -2 -2 -3 -3 -4 -4 -4 -4 -4 -3
-0 -0 -0 -0 -1 -1 -2 -2 -1 -1 -0 1 1 -0 -1 -1 -1 -1 -1 -1 -1 -1 -0 -0 -0 0 2 1 -0 -2 -2 -2 -2 -1 0 -2 -1 -0 2 0 -1 -3 -3 -2 -1 -1 0 0 -0 -1 -5 -2 0 0 -3 -1 -1 -1 -1 -1 -1 -1 -2 -2 -2 -2 -3 -3 -2 -2 -1 -0 1 1 1 1 0 -0 -0 0 0 0 0 -0 -0 -0 -1 -1 -1 -1 -1 -1 -1 -1 -1 -2 -2 -3 -3 -4 -4 -4 -4
-1 -0 -0 -1 -1 -2 -2 -2 -2 -1 -0 1 1 0 -1 -1 -1 -1 -1 -1 -1 -1 -0 1 1 1 1 2 1 -0 -2 -2 -3 -2 0 0 -1 -1 -0 0 0 0 1 -1 -2 -2 -3 -0 2 1 -6 -3 -0 1 -0 -1 -1 -1 -1 -1 -2 -2 -2 -2 -2 -2 -3 -3 -3 -2 -2 -0 0 1 0 0 -0 -0 -0 0 0 0 0 0 -0 -0 -0 -0 -0 -0 -0 -0 -0 -0 -1 -1 -1 -2 -2 -2 -3 -3 -4
-1 -0 -0 -1 -1 -2 -2 -2 -2 -1 -0 0 1 1 -0 -1 -1 -1 -1 -1 -1 -1 0 1 2 1 1 1 2 1 -0 -2 -3 -2 -1 1 1 -0 -1 -1 -1 -0 1 1 1 1 -1 -1 -0 0 -2 -3 -3 -2 2 0 -2 -2 -1 -1 -1 -1 -2 -2 -3 -3 -3 -3 -3 -3 -2 -1 -0 0 0 -0 -1 -1 -0 -0 0 0 1 0 -0 -0 -0 -0 -0 -0 -0 0 0 -0 -0 -1 -1 -1 -1 -2 -2 -2 -3
-1 -1 -1 -1 -1 -1 -2 -2 -2 -2 -1 -0 1 1 0 -0 -1 -1 -1 -1 -1 -0 1 2 2 2 1 1 1 1 0 -1 -2 -2 -1 -0 -0 -0 0 -0 -0 -0 -0 0 1 2 3 1 -1 -2 2 0 -3 -5 -2 -0 -0 -1 -2 -1 -1 -1 -1 -2 -2 -3 -3 -3 -3 -3 -3 -2 -0 1 1 -0 -1 -1 -1 -0 0 0 0 0 -0 -0 -0 -0 -0 -0 -0 0 0 -0 -0 -1 -1 -1 -1 -1 -1 -1 -1
-1 -1 -1 -1 -1 -1 -1 -2 -2 -2 -1 -0 0 1 0 -0 -0 -0 -0 -1 -0 0 1 2 2 2 2 1 1 1 0 -1 -2 -1 1 0 -1 -2 0 1 0 -0 1 0 1 1 2 2 1 1 2 1 -0 -2 -4 -3 -2 -0 -0 -1 -1 -1 -1 -2 -2 -2 -2 -3 -3 -3 -3 -2 -1 0 1 0 -1 -1 -1 -1 -0 0 1 0 -0 -0 -1 -1 -1 -0 -0 0 0 -0 -0 -1 -1 -1 -2 -2 -1 -1 -1
-1 -1 -1 -1 -0 -1 -1 -2 -2 -2 -2 -1 -0 0 1 1 1 1 0 -1 -1 -0 1 2 2 2 2 1 1 0 -1 -1 -2 -2 -1 0 -1 -3 -2 -0 -0 -0 0 0 0 1 1 0 1 2 2 1 1 0 -1 -3 -3 -2 -2 -1 0 0 -1 -2 -2 -1 -1 -2 -3 -3 -2 -2 -1 -0 1 0 -0 -1 -1 -1 -0 0 1 0 -0 -1 -1 -1 -1 -1 -0 -0 0 0 -0 -1 -1 -2 -2 -2 -2 -2 -1
Height
5865 5865 5865 5865 5865 5865 5865 5865 5865 5865 5865 5865 5865 5865 5865 5865 5865 5865 5865 5865 5865 5865 5866 5866 5866 5866 5866 5866 5866 5866 5865 5865 5865 5865 5865 5865 5865 5866 5865 5865 5865 5865 5865 5865 5865 5866 5866 5866 5866 5866 5866 5866 5866 5866 5865 5865 5865 5865 5865 5865 5865 5865 5865 5865 5865 5864 5864 5864 5864 5864 5863 5863 5863 5862 5862 5862 5862 5861 5860 5860 5860 5860 5859 5859 5858 5858 5857 5856 5856 5855 5855 5855 5854 5853 5853 5852 5852 5852 5851 5851 5852 5852 5852
5864 5864 5864 5864 5864 5864 5864 5864 5864 5864 5864 5864 5864 5864 5864 5864 5864 5864 5864 5864 5864 5865 5865 5865 5865 5865 5865 5865 5865 5865 5865 5864 5864 5864 5865 5865 5865 5865 5865 5865 5865 5864 5864 5864 5864 5864 5864 5864 5864 5864 5865 5865 5865 5865 5864 5864 5864 5864 5864 5864 5864 5864 5863 5863 5863 5863 5863 5863 5862 5862 5862 5862 5861 5861 5861 5860 5860 5860 5859 5859 5859 5858 5858 5858 5857 5856 5856 5855 5855 5854 5854 5853 5852 5852 5851 5851 5850 5850 5850 5850 5850 5851 5851
5863 5863 5863 5863 5863 5863 5863 5863 5863 5863 5863 5863 5863 5863 5863 5863 5863 5863 5863 5863 5863 5863 5863 5863 5863 5863 5864 5864 5863 5863 5863 5863 5863 5863 5863 5864 5864 5863 5863 5863 5863 5863 5863 5863 5863 5863 5863 5863 5863 5863 5863 5863 5863 5863 5863 5863 5863 5863 5863 5863 5862 5862 5862 5862 5862 5862 5861 5861 5861 5861 5860 5860 5860 5860 5859 5859 5859 5859 5858 5858 5857 5857 5856 5856 5855 5855 5855 5854 5854 5854 5853 5852 5851 5850 5850 5850 5849 5849 5849 5849 5849 5850 5850
5862 5862 5862 5862 5862 5862 5862 5862 5862 5862 5862 5862 5862 5862 5862 5862 5862 5861 5861 5862 5862 5862 5862 5862 5862 5862 5862 5862 5862 5862 5862 5862 5862 5862 5862 5862 5862 5862 5862 5862 5862 5862 5862 5862 5862 5862 5862 5862 5862 5862 5862 5862 5862 5862 5862 5862 5862 5861 5861 5861 5861 5861 5861 5861 5860 5860 5860 5860 5860 5860 5859 5859 5859 5858 5858 5858 5857 5857 5857 5856 5855 5855 5855 5854 5854 5855 5855 5853 5852 5852 5851 5850 5850 5849 5849 5849 5848 5848 5848 5847 5847 5848 5848
5861 5861 5861 5861 5861 5861 5861 5861 5860 5860 5860 5860 5860 5860 5860 5860 5860 5860 5860 5860 5860 5860 5860 5860 5860 5860 5861 5861 5861 5861 5861 5861 5861 5861 5861 5861 5861 5861 5861 5861 5861 5861 5861 5861 5861 5861 5860 5860 5860 5860 5860 5860 5860 5860 5860 5860 5860 5860 5860 5860 5860 5860 5860 5860 5859 5859 5859 5859 5859 5858 5858 5858 5857 5857 5857 5856 5856 5855 5855 5855 5854 5853 5853 5853 5853 5852 5852 5851 5851 5850 5850 5850 5849 5848 5848 5848 5847 5846 5846 5846 5846 5846 5846
5860 5860 5860 5860 5860 5860 5860 5860 5860 5860 5860 5860 5860 5859 5859 5859 5859 5859 5859 5859 5859 5859 5859 5859 5859 5859 5859 5859 5860 5860 5860 5860 5859 5860 5860 5860 5860 5860 5860 5860 5860 5860 5860 5860 5860 5860 5859 5859 5859 5859 5859 5859 5859 5859 5859 5859 5859 5859 5859 5859 5859 5859 5858 5858 5858 5858 5858 5858 5857 5857 5857 5856 5856 5856 5855 5855 5855 5854 5853 5855 5854 5852 5852 5852 5851 5850 5850 5850 5850 5849 5849 5849 5849 5848 5847 5846 5846 5845 5845 5846 5847 5847 5845
5859 5859 5859 5859 5859 5859 5859 5859 5859 5859 5859 5859 5858 5858 5858 5858 5858 5858 5858 5858 5858 5858 5858 5858 5858 5858 5858 5858 5858 5858 5858 5858 5858 5858 5858 5858 5858 5858 5858 5858 5858 5858 5858 5858 5858 5858 5858 5858 5858 5858 5858 5858 5858 5858 5858 5858 5858 5858 5858 5857 5857 5857 5857 5857 5857 5856 5856 5856 5856 5856 5855 5855 5855 5855 5854 5854 5853 5853 5852 5853 5852 5851 5850 5850 5850 5849 5849 5848 5848 5848 5847 5847 5847 5846 5845 5845 5844 5844 5844 5845 5845 5844 5844
5858 5858 5858 5858 5858 5858 5858 5858 5858 5857 5857 5857 5857 5857 5857 5857 5857 5857 5857 5857 5857 5857 5857 5857 5857 5857 5857 5857 5857 5857 5857 5857 5857 5857 5857 5857 5857 5857 5857 5857 5857 5857 5857 5857 5857 5857 5857 5857 5856 5856 5856 5856 5856 5856 5856 5856 5856 5856 5856 5856 5856 5856 5856 5855 5855 5855 5855 5855 5855 5854 5854 5854 5854 5853 5853 5852 5852 5851 5850 5850 5850 5849 5849 5848 5848 5848 5847 5847 5846 5846 5845 5845 5845 5844 5844 5844 5843 5843 5843 5843 5843 5843 5843
5857 5857 5857 5857 5857 5857 5857 5857 5857 5856 5856 5856 5856 5856 5856 5856 5856 5856 5856 5856 5856 5856 5856 5856 5856 5856 5856 5855 5855 5855 5855 5855 5855 5855 5855 5855 5855 5855 5855 5855 5855 5855 5855 5855 5855 5855 5855 5855 5855 5855 5855 5855 5855 5855 5855 5855 5855 5855 5855 5855 5855 5854 5854 5854 5854 5853 5853 5853 5853 5853 5852 5852 5852 5852 5851 5851 5850 5850 5849 5849 5848 5847 5847 5847 5846 5846 5846 5845 5845 5845 5844 5844 5843 5843 5843 5842 5842 5841 5841 5841 5841 5841 5841
5856 5856 5856 5856 5856 5856 5856 5856 5855 5855 5855 5855 5855 5855 5855 5855 5855 5855 5855 5855 5855 5855 5855 5855 5855 5855 5855 5855 5855 5855 5854 5854 5854 5854 5854 5854 5854 5854 5854 5854 5854 5854 5854 5854 5854 5854 5854 5854 5854 5854 5854 5854 5854 5853 5853 5853 5853 5853 5853 5853 5853 5853 5853 5852 5852 5852 5852 5851 5851 5851 5851 5850 5850 5850 5850 5850 5849 5848 5848 5847 5847 5846 5845 5845 5845 5845 5844 5844 5843 5843 5843 5842 5842 5842 5842 5841 5841 5840 5840 5840 5840 5840 5840
5855 5855 5855 5855 5855 5855 5855 5855 5854 5854 5854 5854 5854 5854 5854 5854 5853 5853 5853 5853 5853 5854 5854 5853 5853 5853 5853 5853 5853 5853 5853 5853 5853 5853 5853 5853 5853 5853 5853 5853 5853 5853 5853 5853 5853 5853 5853 5853 5853 5852 5852 5852 5852 5852 5852 5852 5852 5852 5851 5851 5851 5851 5851 5851 5850 5850 5850 5850 5850 5849 5849 5849 5849 5848 5848 5848 5847 5847 5846 5846 5845 5845 5844 5844 5843 5843 5843 5842 5842 5841 5841 5841 5840 5840 5840 5840 5840 5839 5839 5839 5839 5839 5838
5854 5854 5854 5853 5853 5853 5853 5853 5853 5853 5853 5852 5852 5852 5852 5852 5852 5852 5852 5852 5852 5852 5852 5852 5852 5852 5852 5852 5852 5852 5852 5852 5852 5852 5852 5851 5851 5851 5851 5851 5851 5851 5851 5851 5851 5851 5851 5851 5851 5851 5851 5851 5851 5851 5850 5850 5850 5850 5850 5850 5850 5850 5850 5849 5849 5849 5849 5848 5848 5848 5847 5847 5847 5846 5846 5846 5845 5845 5845 5844 5844 5843 5843 5842 5842 5841 5841 5841 5840 5840 5840 5839 5839 5839 5839 5839 5838 5838 5838 5838 5837 5837 5837
5852 5852 5852 5852 5852 5852 5852 5852 5852 5851 5851 5851 5851 5851 5851 5851 5851 5851 5850 5850 5850 5850 5850 5850 5850 5850 5850 5850 5850 5850 5850 5850 5850 5850 5850 5850 5850 5850 5850 5850 5850 5850 5850 5850 5850 5850 5850 5850 5850 5850 5850 5850 5850 5849 5849 5849 5849 5849 5849 5849 5849 5848 5848 5848 5848 5847 5847 5847 5846 5846 5845 5845 5845 5844 5844 5844 5844 5843 5843 5843 5842 5842 5841 5840 5840 5840 5840 5839 5839 5838 5838 5838 5837 5837 5837 5837 5837 5837 5836 5836 5836 5836 5836
5851 5851 5851 5851 5851 5851 5850 5850 5850 5850 5850 5850 5850 5850 5850 5850 5850 5850 5850 5849 5849 5849 5849 5849 5849 5849 5849 5849 5849 5849 5849 5849 5849 5849 5849 5849 5849 5849 5849 5849 5849 5849 5849 5849 5849 5849 5849 5849 5849 5848 5848 5848 5848 5848 5848 5848 5848 5847 5847 5847 5847 5847 5847 5846 5846 5846 5845 5845 5845 5844 5844 5844 5843 5842 5842 5842 5842 5841 5841 5841 5841 5840 5839 5839 5839 5839 5838 5838 5837 5837 5836 5836 5836 5835 5835 5835 5835 5835 5835 5835 5835 5835 5835
5850 5850 5850 5850 5850 5850 5849 5849 5849 5849 5849 5849 5849 5849 5848 5848 5848 5848 5848 5848 5848 5848 5848 5848 5848 5848 5847 5847 5847 5847 5847 5847 5847 5847 5847 5847 5847 5847 5847 5847 5847 5847 5847 5847 5847 5847 5847 5847 5847 5847 5847 5847 5847 5847 5846 5846 5846 5846 5846 5846 5846 5845 5845 5845 5845 5844 5844 5843 5843 5843 5842 5842 5841 5841 5840 5840 5840 5839 5839 5840 5839 5838 5838 5837 5837 5837 5837 5836 5836 5835 5835 5835 5834 5834 5834 5834 5834 5834 5833 5833 5833 5833 5833
5849 5849 5848 5848 5848 5848 5848 5848 5848 5848 5848 5847 5847 5847 5847 5847 5847 5847 5847 5847 5847 5847 5847 5847 5846 5846 5846 5846 5846 5846 5846 5846 5846 5846 5846 5846 5846 5846 5846 5846 5846 5846 5846 5846 5846 5846 5846 5846 5845 5845 5845 5845 5845 5845 5845 5845 5845 5845 5845 5845 5844 5844 5844 5843 5843 5843 5842 5842 5841 5841 5841 5840 5840 5839 5839 5838 5838 5837 5837 5837 5837 5837 5836 5835 5835 5835 5835 5835 5835 5834 5834 5833 5833 5832 5832 5832 5832 5832 5832 5831 5831 5831 5831
5847 5847 5847 5847 5847 5847 5847 5847 5846 5846 5846 5846 5846 5846 5846 5846 5846 5846 5846 5846 5846 5845 5845 5845 5845 5845 5845 5845 5844 5844 5844 5844 5844 5844 5844 5844 5844 5844 5844 5844 5844 5844 5844 5844 5844 5844 5844 5844 5844 5844 5844 5844 5844 5844 5843 5843 5843 5843 5843 5843 5843 5842 5842 5842 5841 5841 5840 5840 5840 5840 5839 5839 5838 5837 5837 5837 5836 5836 5835 5835 5835 5835 5834 5833 5833 5833 5833 5833 5833 5832 5832 5831 5831 5830 5830 5830 5830 5830 5830 5830 5830 5830 5830
5846 5846 5846 5846 5846 5845 5845 5845 5845 5845 5845 5845 5845 5845 5845 5845 5845 5845 5845 5845 5844 5844 5844 5844 5844 5844 5843 5843 5843 5843 5843 5843 5842 5842 5842 5842 5842 5842 5842 5842 5842 5842 5842 5842 5842 5842 5842 5842 5842 5842 5842 5842 5842 5842 5842 5841 5841 5841 5841 5841 5841 5841 5840 5840 5840 5839 5839 5838 5838 5838 5837 5837 5836 5836 5835 5835 5835 5834 5834 5833 5833 5833 5833 5832 5831 5831 5831 5831 5831 5830 5830 5830 5830 5829 5829 5828 5828 5828 5828 5828 5828 5828 5828
5845 5845 5845 5845 5845 5844 5844 5844 5844 5844 5844 5844 5844 5844 5844 5844 5843 5843 5843 5843 5843 5843 5843 5843 5843 5842 5842 5842 5842 5841 5841 5841 5841 5841 5841 5841 5841 5840 5840 5840 5840 5840 5840 5840 5840 5840 5840 5840 5840 5840 5840 5840 5840 5840 5840 5840 5840 5839 5839 5839 5839 5839 5838 5838 5838 5837 5837 5836 5836 5836 5835 5835 5835 5834 5834 5833 5833 5832 5832 5831 5831 5831 5830 5830 5830 5830 5829 5829 5829 5829 5829 5828 5828 5827 5827 5827 5826 5826 5826 5826 5826 5826 5826
5843 5843 5843 5843 5843 5843 5843 5843 5842 5842 5842 5842 5842 5842 5842 5842 5842 5842 5842 5842 5842 5842 5841 5841 5841 5841 5841 5841 5840 5840 5840 5840 5840 5840 5839 5839 5839 5839 5839 5839 5839 5839 5839 5839 5839 5839 5839 5839 5839 5839 5839 5838 5838 5838 5838 5838 5837 5837 5837 5837 5837 5836 5836 5836 5835 5835 5835 5834 5834 5834 5833 5833 5833 5832 5832 5831 5831 5831 5830 5830 5829 5829 5829 5828 5828 5828 5827 5827 5827 5827 5827 5826 5826 5826 5825 5825 5825 5825 5824 5824 5824 5824 5824
5842 5842 5842 5842 5842 5842 5842 5841 5841 5841 5841 5841 5841 5841 5841 5841 5841 5841 5841 5840 5840 5840 5840 5840 5840 5840 5840 5840 5840 5839 5839 5839 5838 5838 5838 5838 5838 5837 5837 5837 5837 5837 5837 5837 5837 5837 5837 5837 5837 5837 5836 5836 5836 5836 5836 5835 5835 5835 5835 5835 5835 5834 5834 5834 5833 5833 5832 5832 5832 5831 5831 5831 5830 5830 5830 5830 5829 5829 5828 5828 5828 5827 5827 5826 5826 5826 5825 5825 5825 5825 5825 5825 5824 5824 5824 5823 5823 5823 5823 5822 5822 5822 5822
5840 5840 5840 5840 5840 5840 5840 5840 5840 5840 5840 5840 5840 5840 5840 5840 5840 5840 5839 5839 5839 5839 5839 5839 5839 5839 5839 5838 5838 5838 5838 5837 5837 5837 5837 5836 5836 5836 5836 5836 5835 5835 5835 5835 5835 5835 5835 5835 5835 5835 5835 5835 5834 5834 5834 5834 5834 5833 5833 5833 5832 5832 5832 5832 5831 5831 5830 5830 5830 5829 5829 5829 5828 5828 5828 5827 5827 5827 5826 5826 5826 5825 5825 5825 5824 5824 5824 5823 5823 5823 5823 5823 5822 5822 5822 5822 5821 5821 5821 5821 5820 5820 5820
5839 5839 5839 5839 5839 5839 5839 5839 5839 5839 5838 5838 5838 5838 5838 5838 5838 5838 5838 5838 5838 5837 5837 5837 5837 5837 5837 5837 5837 5837 5836 5836 5836 5835 5835 5835 5835 5835 5835 5834 5834 5834 5834 5834 5834 5834 5834 5833 5833 5833 5833 5833 5832 5832 5832 5832 5832 5831 5831 5831 5830 5830 5830 5830 5829 5829 5829 5828 5828 5827 5827 5827 5826 5826 5826 5825 5825 5825 5824 5824 5824 5823 5823 5823 5823 5822 5822 5821 5821 5821 5820 5820 5820 5820 5820 5820 5820 5819 5819 5819 5819 5819 5818
5837 5837 5837 5838 5838 5838 5838 5838 5837 5837 5837 5837 5837 5837 5837 5837 5837 5836 5836 5836 5836 5836 5836 5836 5836 5836 5836 5835 5835 5835 5835 5835 5835 5834 5834 5834 5834 5833 5833 5833 5833 5832 5832 5832 5832 5832 5832 5832 5832 5831 5831 5831 5831 5830 5830 5830 5830 5830 5829 5829 5829 5828 5828 5828 5827 5827 5826 5826 5826 5825 5825 5825 5824 5824 5824 5823 5823 5823 5822 5822 5822 5821 5821 5821 5820 5820 5820 5820 5819 5819 5819 5819 5818 5818 5818 5818 5818 5817 5817 5817 5817 5816 5816
5836 5836 5836 5836 5836 5836 5836 5836 5836 5836 5836 5836 5836 5835 5835 5835 5835 5835 5835 5835 5835 5835 5835 5834 5834 5834 5834 5834 5834 5834 5834 5833 5833 5833 5833 5832 5832 5832 5832 5831 5831 5831 5831 5831 5830 5830 5830 5830 5830 5830 5830 5830 5829 5829 5829 5828 5828 5828 5827 5827 5827 5827 5826 5826 5825 5825 5825 5824 5824 5823 5823 5822 5822 5822 5821 5821 5821 5820 5820 5820 5820 5819 5819 5819 5819 5818 5818 5818 5817 5817 5816 5816 5816 5816 5816 5816 5816 5815 5815 5815 5815 5815 5814
5835 5835 5835 5835 5835 5835 5835 5835 5835 5834 5834 5834 5834 5834 5834 5834 5834 5834 5833 5833 5833 5833 5833 5833 5833 5833 5833 5833 5833 5832 5832 5832 5832 5831 5831 5831 5830 5830 5830 5830 5830 5830 5830 5829 5829 5829 5829 5829 5828 5828 5828 5828 5827 5827 5827 5826 5826 5826 5826 5825 5825 5825 5825 5824 5824 5823 5823 5822 5822 5821 5821 5820 5820 5820 5819 5819 5819 5818 5818 5818 5817 5817 5817 5817 5816 5816 5816 5816 5815 5815 5815 5814 5814 5814 5814 5814 5814 5814 5813 5813 5813 5813 5812
5833 5833 5833 5833 5833 5833 5833 5833 5833 5833 5833 5833 5833 5833 5833 5832 5832 5832 5832 5832 5831 5831 5831 5831 5831 5831 5831 5831 5831 5831 5831 5830 5830 5830 5830 5829 5829 5829 5829 5828 5828 5828 5828 5828 5827 5827 5827 5827 5827 5826 5826 5826 5826 5825 5825 5825 5825 5824 5824 5824 5823 5823 5823 5822 5822 5821 5821 5820 5820 5820 5819 5819 5818 5818 5817 5817 5816 5816 5816 5815 5815 5815 5815 5815 5814 5814 5814 5814 5813 5813 5813 5812 5812 5812 5812 5812 5812 5811 5811 5811 5811 5810 5810
5832 5831 5831 5831 5831 5831 5831 5831 5831 5831 5831 5831 5831 5831 5831 5831 5831 5830 5830 5830 5830 5830 5830 5830 5830 5830 5830 5830 5830 5830 5829 5829 5829 5828 5828 5828 5827 5827 5827 5827 5827 5826 5826 5826 5826 5826 5825 5825 5825 5825 5825 5825 5824 5824 5823 5823 5823 5822 5822 5822 5821 5821 5821 5820 5820 5820 5819 5819 5818 5817 5817 5816 5816 5815 5815 5815 5814 5814 5814 5813 5813 5813 5812 5812 5812 5812 5812 5811 5811 5811 5811 5810 5810 5810 5810 5810 5809 5809 5809 5809 5809 5808 5808
5830 5830 5830 5830 5830 5830 5830 5830 5829 5830 5830 5830 5830 5830 5830 5830 5829 5829 5829 5828 5828 5828 5828 5828 5828 5828 5828 5828 5828 5828 5828 5827 5827 5827 5826 5826 5826 5825 5825 5825 5825 5825 5825 5825 5824 5824 5824 5824 5823 5823 5823 5823 5822 5822 5822 5821 5821 5820 5820 5820 5820 5819 5819 5818 5818 5818 5817 5817 5816 5815 5815 5815 5814 5814 5813 5813 5812 5812 5811 5811 5811 5810 5810 5810 5810 5810 5809 5809 5809 5809 5809 5808 5808 5808 5808 5807 5807 5807 5807 5807 5806 5806 5806
5829 5829 5828 5828 5828 5828 5828 5828 5828 5828 5828 5828 5828 5828 5828 5828 5827 5827 5827 5827 5827 5826 5826 5826 5826 5826 5826 5826 5826 5826 5826 5826 5825 5825 5825 5825 5824 5824 5824 5823 5823 5823 5823 5823 5823 5822 5822 5822 5822 5821 5821 5821 5820 5820 5820 5820 5819 5819 5818 5818 5818 5817 5817 5816 5816 5815 5815 5815 5814 5814 5813 5813 5812 5811 5811 5810 5810 5810 5809 5809 5809 5808 5808 5808 5807 5807 5807 5807 5807 5807 5806 5806 5806 5805 5805 5805 5805 5805 5805 5804 5804 5804 5804
5827 5827 5827 5826 5826 5826 5826 5826 5826 5826 5826 5827 5827 5826 5826 5826 5826 5825 5825 5825 5825 5825 5825 5825 5824 5824 5824 5824 5824 5824 5824 5824 5824 5824 5823 5823 5823 5822 5822 5822 5821 5821 5821 5821 5821 5820 5820 5820 5820 5820 5820 5819 5819 5819 5818 5818 5817 5817 5816 5816 5816 5815 5815 5815 5814 5814 5813 5813 5812 5812 5811 5810 5810 5810 5809 5808 5808 5807 5807 5807 5806 5806 5806 5805 5805 5805 5805 5805 5805 5804 5804 5804 5804 5803 5803 5803 5803 5802 5802 5802 5802 5801 5801
5825 5825 5825 5825 5825 5824 5824 5824 5824 5824 5825 5825 5825 5825 5825 5824 5824 5824 5824 5823 5823 5823 5823 5823 5823 5823 5822 5822 5822 5822 5823 5822 5822 5822 5822 5821 5821 5821 5820 5820 5820 5820 5820 5819 5819 5819 5819 5818 5818 5818 5818 5817 5817 5817 5816 5816 5815 5815 5815 5814 5814 5813 5813 5812 5812 5811 5811 5810 5810 5810 5809 5808 5808 5807 5807 5806 5806 5805 5805 5805 5804 5804 5803 5803 5803 5802 5802 5802 5802 5802 5802 5801 5801 5801 5801 5800 5800 5800 5800 5800 5799 5799 5799
5824 5824 5823 5823 5823 5822 5822 5822 5822 5822 5823 5823 5823 5823 5823 5823 5822 5822 5822 5822 5821 5821 5821 5821 5821 5821 5821 5820 5820 5820 5821 5820 5820 5820 5820 5820 5820 5819 5819 5819 5818 5818 5818 5818 5817 5817 5817 5816 5816 5816 5815 5815 5815 5815 5814 5814 5813 5813 5812 5812 5812 5811 5810 5810 5810 5809 5809 5808 5808 5807 5807 5806 5806 5805 5805 5804 5804 5803 5803 5802 5802 5801 5801 5801 5800 5800 5800 5800 5800 5800 5799 5799 5799 5799 5798 5798 5798 5797 5797 5797 5797 5796 5796
5822 5822 5821 5821 5821 5820 5820 5820 5820 5820 5821 5821 5821 5821 5821 5820 5820 5820 5820 5820 5820 5820 5820 5819 5819 5819 5819 5819 5819 5819 5819 5819 5818 5818 5818 5818 5818 5817 5817 5817 5816 5816 5816 5816 5815 5815 5815 5815 5814 5814 5814 5813 5813 5813 5812 5812 5811 5811 5810 5810 5810 5809 5808 5808 5807 5807 5806 5806 5805 5805 5805 5804 5804 5803 5803 5802 5802 5801 5801 5800 5800 5799 5799 5799 5798 5798 5797 5797 5797 5797 5797 5797 5796 5796 5796 5795 5795 5795 5795 5794 5794 5794 5794
5820 5820 5820 5820 5819 5819 5818 5818 5818 5818 5819 5819 5820 5820 5819 5819 5818 5818 5818 5818 5818 5818 5818 5818 5817 5817 5817 5817 5817 5817 5817 5816 5816 5816 5816 5816 5816 5815 5815 5815 5815 5814 5814 5814 5814 5813 5813 5813 5812 5812 5811 5811 5811 5810 5810 5810 5809 5809 5808 5808 5807 5807 5806 5806 5805 5805 5804 5804 5803 5803 5802 5802 5801 5801 5800 5800 5799 5799 5799 5798 5798 5797 5797 5796 5796 5795 5795 5795 5795 5794 5794 5794 5794 5794 5794 5793 5793 5792 5792 5792 5791 5791 5791
5818 5818 5818 5818 5817 5817 5816 5816 5816 5816 5817 5818 5818 5818 5817 5817 5816 5816 5816 5816 5816 5816 5816 5816 5815 5815 5815 5815 5815 5815 5815 5815 5814 5814 5814 5814 5814 5813 5813 5813 5813 5812 5812 5812 5812 5811 5811 5810 5810 5810 5810 5809 5809 5808 5808 5807 5807 5806 5806 5805 5805 5805 5804 5804 5803 5803 5802 5802 5801 5800 5800 5800 5799 5799 5798 5798 5797 5797 5796 5796 5795 5795 5794 5794 5793 5793 5793 5792 5792 5792 5791 5791 5791 5791 5791 5791 5790 5790 5790 5789 5789 5789 5788
5816 5816 5816 5816 5816 5815 5815 5814 5814 5815 5815 5816 5816 5816 5815 5815 5815 5814 5814 5814 5814 5814 5814 5814 5814 5813 5813 5813 5813 5813 5813 5813 5812 5812 5812 5812 5811 5811 5811 5811 5811 5810 5810 5810 5810 5810 5809 5809 5808 5808 5808 5807 5807 5806 5806 5805 5805 5805 5804 5804 5803 5802 5802 5801 5801 5800 5800 5800 5799 5798 5798 5797 5797 5796 5796 5795 5795 5794 5794 5793 5793 5792 5792 5791 5791 5790 5790 5790 5789 5789 5789 5789 5789 5788 5788 5788 5788 5787 5787 5786 5786 5786 5785
5815 5815 5815 5814 5814 5814 5813 5813 5812 5813 5813 5814 5814 5814 5814 5813 5813 5812 5812 5812 5812 5812 5812 5812 5812 5811 5811 5811 5811 5811 5811 5811 5810 5810 5810 5810 5810 5810 5809 5809 5809 5809 5809 5808 5808 5808 5807 5807 5806 5806 5806 5805 5805 5805 5804 5804 5803 5802 5802 5801 5801 5800 5800 5799 5799 5798 5798 5797 5797 5796 5795 5795 5795 5794 5794 5793 5792 5792 5791 5791 5790 5790 5789 5789 5788 5788 5788 5787 5787 5786 5786 5786 5786 5785 5785 5785 5785 5785 5784 5784 5783 5783 5783
5813 5813 5813 5813 5812 5812 5811 5811 5811 5811 5811 5812 5812 5812 5812 5811 5811 5810 5810 5810 5810 5810 5810 5810 5810 5810 5809 5809 5809 5809 5809 5809 5809 5809 5808 5808 5808 5808 5808 5807 5807 5807 5807 5806 5806 5806 5805 5805 5805 5804 5804 5804 5803 5803 5802 5802 5801 5800 5800 5800 5799 5798 5798 5797 5797 5796 5795 5795 5795 5794 5793 5793 5792 5792 5791 5791 5790 5790 5789 5789 5788 5787 5787 5786 5786 5785 5785 5785 5784 5784 5783 5783 5783 5783 5782 5782 5782 5782 5781 5781 5780 5780 5780
5811 5811 5811 5811 5810 5810 5810 5809 5809 5809 5810 5810 5810 5810 5810 5810 5809 5809 5808 5808 5808 5808 5808 5808 5808 5807 5807 5807 5807 5807 5807 5807 5807 5807 5806 5806 5806 5806 5806 5806 5805 5805 5805 5805 5804 5804 5804 5803 5803 5802 5802 5802 5801 5801 5800 5800 5799 5799 5798 5798 5797 5796 5796 5795 5795 5794 5793 5793 5792 5791 5791 5790 5790 5789 5789 5788 5788 5787 5787 5786 5785 5785 5785 5784 5783 5783 5782 5782 5782 5781 5781 5780 5780 5780 5780 5780 5779 5779 5779 5778 5778 5777 5777
5809 5809 5809 5809 5809 5808 5808 5808 5808 5808 5808 5809 5809 5809 5808 5808 5807 5807 5806 5806 5806 5806 5806 5806 5806 5805 5805 5805 5805 5805 5805 5805 5805 5805 5805 5805 5805 5805 5804 5804 5804 5803 5803 5803 5802 5802 5802 5801 5801 5800 5800 5800 5799 5799 5798 5798 5797 5797 5796 5795 5795 5794 5794 5793 5792 5792 5791 5790 5790 5789 5789 5788 5788 5787 5786 5786 5785 5785 5784 5784 5783 5782 5782 5781 5781 5780 5780 5780 5779 5779 5778 5778 5778 5777 5777 5777 5776 5776 5776 5775 5775 5775 5774
5807 5807 5807 5807 5807 5806 5806 5806 5806 5806 5807 5807 5807 5807 5806 5806 5805 5805 5805 5805 5804 5804 5804 5804 5804 5804 5803 5803 5803 5804 5804 5803 5803 5803 5803 5803 5803 5803 5802 5802 5802 5801 5801 5801 5800 5800 5800 5799 5799 5798 5798 5798 5797 5797 5796 5795 5795 5795 5794 5793 5793 5792 5791 5791 5790 5790 5789 5788 5788 5787 5786 5786 5785 5785 5784 5783 5783 5782 5782 5781 5780 5780 5779 5779 5778 5778 5777 5777 5776 5776 5776 5775 5775 5775 5774 5774 5774 5773 5773 5773 5772 5772 5771
5805 5805 5805 5805 5805 5805 5805 5805 5805 5805 5805 5805 5805 5805 5805 5804 5804 5803 5803 5803 5802 5802 5802 5802 5802 5801 5801 5801 5801 5801 5801 5801 5801 5801 5801 5801 5801 5801 5800 5800 5800 5800 5799 5799 5798 5798 5797 5797 5797 5796 5796 5795 5795 5794 5794 5793 5793 5792 5791 5791 5790 5790 5789 5789 5788 5787 5787 5786 5785 5785 5784 5784 5783 5782 5782 5781 5780 5780 5779 5779 5778 5777 5777 5776 5776 5775 5775 5774 5774 5774 5773 5773 5772 5772 5771 5771 5771 5770 5770 5770 5770 5769 5769
5803 5803 5803 5803 5803 5803 5803 5803 5803 5803 5803 5803 5803 5803 5803 5802 5802 5801 5801 5801 5800 5800 5800 5800 5800 5800 5799 5799 5799 5799 5800 5800 5799 5799 5799 5799 5799 5799 5798 5798 5798 5797 5797 5796 5796 5795 5795 5795 5794 5794 5793 5793 5792 5792 5791 5790 5790 5790 5789 5788 5788 5787 5786 5786 5785 5785 5784 5784 5783 5782 5782 5781 5780 5780 5779 5779 5778 5777 5777 5776 5775 5775 5774 5774 5773 5773 5772 5772 5771 5771 5770 5770 5770 5769 5769 5768 5768 5767 5767 5767 5766 5766 5765
5801 5801 5801 5801 5801 5801 5801 5801 5801 5801 5802 5802 5801 5801 5801 5800 5800 5800 5799 5799 5799 5799 5799 5798 5798 5798 5797 5797 5797 5797 5797 5797 5797 5797 5797 5797 5797 5796 5796 5796 5795 5795 5795 5794 5794 5793 5793 5792 5792 5791 5790 5790 5790 5789 5788 5788 5787 5787 5786 5785 5785 5784 5784 5783 5783 5782 5782 5781 5780 5780 5779 5779 5778 5778 5777 5776 5775 5775 5774 5774 5773 5772 5772 5771 5771 5770 5770 5770 5769 5769 5768 5768 5767 5766 5766 5765 5765 5765 5764 5764 5763 5763 5762
5800 5800 5800 5799 5799 5799 5799 5799 5799 5800 5800 5800 5800 5800 5799 5799 5798 5798 5797 5797 5797 5797 5797 5796 5796 5796 5795 5795 5795 5795 5795 5795 5795 5795 5795 5795 5795 5794 5794 5794 5793 5793 5792 5792 5791 5791 5790 5790 5789 5789 5788 5787 5787 5786 5786 5785 5785 5784 5783 5783 5782 5781 5781 5780 5780 5779 5779 5778 5778 5777 5777 5776 5775 5775 5775 5774 5773 5772 5772 5771 5770 5770 5769 5769 5768 5768 5767 5767 5766 5766 5765 5765 5764 5764 5763 5762 5762 5761 5761 5760 5760 5760 5759
5798 5798 5797 5797 5797 5797 5797 5797 5798 5798 5798 5798 5798 5798 5797 5797 5796 5796 5796 5795 5795 5795 5795 5795 5794 5794 5794 5794 5793 5793 5793 5793 5793 5793 5793 5792 5792 5792 5792 5791 5791 5790 5790 5789 5789 5788 5788 5787 5786 5786 5785 5785 5784 5784 5783 5782 5782 5781 5780 5780 5779 5779 5778 5777 5777 5776 5776 5775 5775 5775 5774 5774 5773 5772 5772 5771 5770 5770 5769 5768 5768 5767 5766 5766 5765 5765 5764 5764 5763 5763 5762 5761 5761 5760 5760 5759 5759 5758 5757 5757 5756 5756 5756
5796 5796 5795 5795 5795 5795 5795 5795 5795 5796 5796 5796 5796 5796 5795 5795 5795 5794 5794 5794 5794 5793 5793 5793 5792 5792 5792 5792 5791 5791 5791 5791 5790 5790 5790 5790 5790 5790 5790 5789 5788 5788 5787 5787 5786 5785 5785 5785 5784 5783 5783 5782 5781 5781 5780 5780 5779 5779 5778 5777 5777 5776 5775 5775 5774 5774 5773 5773 5772 5772 5771 5771 5770 5770 5769 5768 5768 5767 5766 5765 5765 5764 5763 5763 5762 5762 5761 5760 5760 5759 5759 5758 5758 5757 5757 5756 5755 5755 5754 5754 5753 5753 5752
5794 5794 5794 5793 5793 5793 5793 5793 5794 5794 5794 5794 5794 5794 5793 5793 5792 5792 5792 5792 5792 5791 5791 5791 5790 5790 5790 5790 5790 5790 5789 5789 5788 5788 5788 5788 5788 5787 5787 5787 5786 5786 5785 5785 5784 5783 5783 5782 5781 5780 5780 5780 5779 5778 5778 5777 5776 5776 5775 5775 5774 5774 5773 5772 5772 5771 5770 5770 5770 5769 5769 5768 5767 5767 5766 5765 5765 5764 5763 5762 5761 5761 5760 5760 5759 5759 5758 5757 5757 5756 5755 5755 5754 5754 5753 5753 5752 5752 5751 5750 5750 5749 5749
5792 5792 5791 5791 5791 5791 5791 5791 5791 5791 5792 5792 5792 5791 5791 5791 5790 5790 5790 5790 5790 5789 5789 5789 5789 5788 5788 5788 5788 5787 5787 5786 5786 5786 5786 5785 5785 5785 5784 5784 5784 5784 5783 5782 5781 5781 5780 5780 5779 5778 5778 5777 5776 5776 5775 5775 5774 5773 5773 5772 5772 5771 5770 5770 5769 5769 5768 5767 5767 5766 5766 5765 5765 5764 5763 5762 5762 5761 5760 5759 5758 5758 5757 5757 5756 5755 5755 5754 5754 5753 5752 5751 5751 5750 5750 5749 5749 5748 5748 5747 5747 5746 5745
5790 5790 5789 5789 5789 5789 5789 5789 5789 5789 5789 5789 5789 5789 5789 5789 5788 5788 5788 5788 5787 5787 5787 5787 5786 5786 5786 5785 5785 5785 5785 5784 5784 5784 5783 5783 5783 5782 5782 5782 5781 5781 5780 5780 5779 5779 5778 5777 5776 5776 5775 5775 5774 5774 5773 5772 5772 5771 5770 5770 5770 5769 5768 5767 5767 5766 5765 5765 5764 5764 5763 5763 5762 5761 5760 5760 5759 5758 5757 5756 5755 5755 5754 5754 5753 5752 5751 5751 5750 5750 5749 5748 5747 5747 5746 5746 5745 5745 5744 5744 5743 5743 5742
5787 5787 5787 5786 5786 5786 5786 5786 5786 5786 5787 5787 5787 5787 5787 5786 5786 5786 5785 5785 5785 5785 5785 5785 5784 5784 5784 5783 5783 5782 5782 5782 5781 5781 5781 5780 5780 5780 5780 5779 5779 5779 5778 5777 5777 5777 5776 5775 5774 5774 5773 5773 5772 5771 5771 5770 5770 5769 5768 5768 5767 5766 5766 5765 5765 5764 5763 5762 5762 5761 5760 5760 5760 5759 5758 5757 5756 5755 5754 5754 5753 5752 5751 5751 5750 5749 5749 5748 5747 5746 5746 5745 5744 5744 5743 5742 5741 5741 5740 5740 5740 5739 5739
5785 5785 5784 5784 5784 5783 5783 5783 5783 5784 5784 5784 5784 5784 5784 5784 5784 5784 5783 5783 5783 5782 5782 5782 5782 5782 5781 5781 5781 5780 5780 5780 5779 5779 5779 5778 5778 5778 5778 5777 5777 5776 5776 5775 5775 5774 5774 5773 5772 5772 5771 5771 5770 5769 5769 5768 5767 5767 5766 5765 5765 5764 5764 5763 5762 5761 5760 5760 5759 5759 5758 5757 5757 5756 5755 5754 5753 5752 5752 5751 5750 5749 5749 5748 5747 5746 5746 5745 5744 5744 5743 5742 5741 5740 5740 5739 5738 5737 5737 5736 5736 5735 5735
5782 5782 5781 5781 5781 5780 5780 5780 5780 5781 5781 5781 5782 5782 5782 5781 5781 5781 5781 5780 5780 5780 5780 5780 5780 5779 5779 5779 5779 5778 5778 5777 5777 5777 5776 5776 5776 5775 5775 5775 5775 5774 5773 5773 5772 5772 5771 5771 5770 5769 5769 5769 5768 5767 5766 5766 5765 5765 5764 5763 5763 5762 5761 5760 5760 5759 5758 5757 5757 5756 5755 5755 5754 5754 5753 5752 5751 5750 5749 5748 5747 5747 5746 5745 5744 5744 5743 5742 5741 5740 5740 5739 5738 5737 5736 5735 5735 5734 5733 5733 5732 5731 5731
5779 5779 5779 5778 5778 5778 5778 5778 5778 5778 5779 5779 5779 5779 5779 5779 5779 5779 5778 5778 5778 5778 5778 5777 5777 5777 5777 5776 5776 5776 5776 5775 5775 5775 5774 5774 5774 5773 5773 5773 5772 5772 5771 5771 5770 5770 5769 5768 5768 5767 5767 5766 5765 5765 5764 5764 5763 5762 5761 5761 5760 5759 5759 5758 5757 5756 5755 5755 5754 5754 5753 5752 5752 5751 5750 5749 5748 5747 5746 5745 5745 5744 5743 5742 5741 5741 5740 5739 5738 5738 5737 5736 5735 5734 5733 5732 5731 5730 5730 5729 5728 5728 5727
5776 5776 5776 5775 5775 5775 5775 5775 5775 5775 5775 5776 5776 5776 5776 5776 5776 5776 5776 5776 5775 5775 5775 5775 5775 5775 5775 5774 5774 5774 5774 5774 5773 5773 5772 5772 5771 5771 5771 5770 5770 5770 5769 5769 5768 5768 5767 5766 5765 5765 5765 5765 5764 5762 5762 5761 5760 5760 5759 5758 5758 5757 5756 5755 5755 5754 5753 5752 5752 5751 5750 5750 5749 5748 5748 5747 5746 5745 5744 5743 5742 5741 5740 5740 5739 5738 5737 5736 5735 5735 5734 5733 5732 5731 5730 5729 5728 5727 5726 5726 5725 5724 5724
5773 5773 5773 5773 5772 5772 5772 5772 5772 5772 5773 5773 5773 5774 5774 5774 5774 5774 5773 5773 5773 5773 5773 5772 5772 5772 5772 5772 5772 5771 5771 5771 5771 5770 5770 5770 5769 5769 5769 5768 5767 5767 5767 5766 5766 5765 5765 5764 5763 5763 5762 5762 5762 5760 5760 5759 5758 5757 5756 5756 5755 5754 5753 5752 5752 5751 5750 5750 5749 5748 5748 5747 5746 5745 5745 5744 5743 5742 5741 5740 5740 5739 5738 5737 5736 5735 5734 5733 5733 5732 5731 5730 5729 5728 5727 5726 5725 5724 5723 5722 5721 5721 5720
5770 5770 5770 5770 5770 5770 5769 5769 5770 5770 5770 5770 5770 5771 5771 5771 5771 5771 5771 5770 5770 5770 5770 5770 5770 5770 5770 5770 5769 5769 5769 5768 5768 5768 5768 5767 5767 5766 5766 5765 5765 5765 5764 5764 5763 5763 5762 5761 5761 5760 5760 5759 5759 5759 5758 5756 5755 5755 5754 5753 5752 5751 5750 5750 5749 5748 5747 5747 5746 5745 5745 5744 5744 5743 5742 5741 5740 5739 5738 5738 5737 5736 5735 5734 5733 5732 5731 5730 5730 5729 5728 5727 5726 5725 5724 5723 5722 5721 5720 5719 5718 5717 5717
5767 5767 5767 5767 5767 5767 5767 5767 5767 5767 5767 5767 5768 5768 5768 5768 5768 5768 5768 5768 5768 5767 5767 5767 5767 5767 5767 5767 5766 5766 5765 5765 5765 5765 5765 5765 5765 5764 5764 5763 5763 5762 5762 5761 5761 5760 5759 5758 5758 5758 5757 5756 5756 5755 5755 5754 5753 5752 5751 5751 5750 5749 5748 5747 5746 5745 5745 5744 5743 5742 5742 5741 5741 5740 5739 5738 5737 5736 5735 5735 5734 5733 5732 5731 5730 5729 5728 5727 5726 5725 5725 5724 5723 5721 5720 5720 5719 5718 5717 5716 5715 5714 5713
5764 5764 5764 5764 5764 5764 5764 5764 5764 5764 5764 5765 5765 5765 5765 5765 5766 5765 5765 5765 5765 5765 5764 5764 5764 5764 5764 5764 5764 5763 5763 5762 5762 5762 5762 5762 5762 5762 5761 5760 5760 5760 5760 5759 5758 5758 5757 5756 5755 5755 5754 5754 5753 5753 5752 5752 5751 5750 5749 5748 5747 5746 5745 5744 5743 5742 5741 5741 5740 5739 5739 5738 5738 5737 5736 5735 5734 5733 5732 5731 5730 5730 5729 5728 5727 5726 5725 5724 5723 5722 5721 5720 5719 5718 5717 5716 5715 5714 5713 5712 5711 5711 5710
5761 5761 5761 5761 5761 5761 5761 5761 5761 5761 5761 5762 5762 5762 5762 5763 5763 5763 5763 5762 5762 5761 5761 5761 5761 5761 5761 5761 5760 5760 5760 5760 5760 5760 5760 5759 5759 5759 5759 5758 5758 5757 5757 5756 5755 5755 5754 5754 5753 5752 5751 5750 5750 5750 5749 5749 5748 5747 5746 5745 5744 5743 5742 5741 5740 5740 5739 5738 5737 5736 5735 5735 5734 5734 5733 5732 5730 5730 5729 5728 5727 5726 5725 5724 5723 5722 5721 5720 5719 5718 5717 5716 5715 5715 5714 5712 5711 5710 5710 5709 5708 5707 5706